Weather in Kotkozero

Russia / Republic of Karelia     61°16′09″N   33°12′29″E
temp.,
°C
wind,
m/s
gust,
m/s
humid.,
%
clouds,
%
prec.,
mm/h
press.,
hPa
HPBL,
m
1 march, mon
mon100:000wsw369899 0.0 1018331
03:000wsw499699 0.0 1017516
06:000wsw4997100 0.0 1015589
09:00+1wsw41099100 0.0 1014466
12:00+1w51197100 0.0 1012612
15:00+1w51198100 0.0 1011672
18:00+1w51399100 0.1 1008725
21:00+1w51295100 0.2 1007786
2 march, tue
tue200:00+1wnw5119178 0.1 1006993
03:00−1wnw4139085 0.1 1007673
06:00−3wnw4129222 0.0 1006539
09:00−3wnw4129226 0.0 1006570
12:00−1nw5108786 0.1 1007928
15:000nw5127275 0.1 10091737
18:00−4nw3138062 0.0 1011610
21:00−6nw3108848 0.0 1014266
3 march, wed
wed300:00−6w37940 0.0 1014177
03:00−6w399713 0.0 1013280
06:00−5wnw3119561 0.0 1011446
09:00−4wnw4119374 0.0 1012537
12:00−2wnw489094 0.0 1011610
15:00−1w498697 0.0 1009670
18:00−2wsw3994100 0.0 1005614
21:00−1sw51297100 2.9 1000843
4 march, thu
thu400:00+1w71492100 1.3 9951210
03:00−2nw7138699 1.4 994951
06:00−5nw399484 0.2 995391
09:00−4nnw399485 0.2 996544
12:00−4n4788100 0.0 998644
15:00−4n4685100 0.1 1000881
18:00−6nnw3889100 0.1 1001354
21:00−9nnw289370 0.1 1003195
5 march, fri
fri500:00−11nw239621 0.0 100477
03:00−10nw259656 0.1 1006161
06:00−10nw229796 0.2 100778
09:00−10nw129693 0.3 1008128
12:00−7nnw128698 0.1 1010494
15:00−6nnw128699 0.3 1011550
18:00−8nne2595100 0.4 1013217
21:00−11ne2396100 0.5 101577